Regional Weather Roundup
Issued by NWS

Home | Current Version | Previous Version | Graphics & Text | Print | Product List | Glossary On
Versions: 1 2 3 4 5 6 7 8 9 10 11 12 13 14 15 16 17 18 19 20 21 22 23 24 25 26 27 28 29 30 31 32 33 34 35 36 37 38 39 40 41 42 43 44 45 46 47 48 49 50
000
ASUS43 KMKX 291811
RWRWI

WISCONSIN REGIONAL WEATHER ROUNDUP
NATIONAL WEATHER SERVICE MILWAUKEE/SULLIVAN WI
100 PM CDT SUN MAY 29 2016

NOTE: "FAIR" INDICATES FEW OR NO CLOUDS BELOW 12,000 FEET WITH NO
SIGNIFICANT WEATHER AND/OR OBSTRUCTIONS TO VISIBILITY.

WIZ001-002-006>008-014>016-023>028-291900-
NORTHWEST WISCONSIN

CITY           SKY/WX    TMP DP  RH WIND       PRES   REMARKS
SUPERIOR ARPT  CLOUDY    67  57  70 W13G21    29.86R
6HR MIN TEMP:  56; 6HR MAX TEMP:  68;

ASHLAND        CLOUDY    66  57  72 W12G23    29.84R
6HR MIN TEMP:  57; 6HR MAX TEMP:  69; 6HR PCP:  0.01;

HAYWARD        CLOUDY    63  59  87 VRB7      29.89R
6HR MIN TEMP:  59; 6HR MAX TEMP:  64; 6HR PCP:  0.01;

SIREN          CLOUDY    69  55  60 W13G22    29.92R
6HR MIN TEMP:  60; 6HR MAX TEMP:  70;

CUMBERLAND     CLOUDY    68  55  64 W12G17    29.92S
RICE LAKE      CLOUDY    68  58  71 W16       29.94R
6HR MIN TEMP:  60; 6HR MAX TEMP:  68;

CHETEK         CLOUDY    68  60  76 W13G21    29.92S
6HR MIN TEMP:  60; 6HR MAX TEMP:  69;

LADYSMITH      CLOUDY    67  60  76 W10G21    29.92R
6HR MIN TEMP:  62; 6HR MAX TEMP:  68;

EAU CLAIRE     CLOUDY    71  60  68 W16G28    29.93R
6HR MIN TEMP:  62; 6HR MAX TEMP:  71; 6HR PCP:  0.05;

MENOMONIE      MOSUNNY   70  67  89 SW10      29.94S
6HR MIN TEMP:  62; 6HR MAX TEMP:  70;

NEW RICHMOND   PTSUNNY   72  57  60 W18G24    29.95R
OSCEOLA        PTSUNNY   71  57  61 W14G21    29.97R
6HR MIN TEMP:  61; 6HR MAX TEMP:  71;

$$

WIZ003>005-009-010-017-018-291900-
NORTH CENTRAL WISCONSIN

CITY           SKY/WX    TMP DP  RH WIND       PRES   REMARKS
MANITOWISH WTR NOT AVBL
ARBOR VITAE    CLOUDY    67  60  76 W7G16     29.86F
6HR MIN TEMP:  62; 6HR MAX TEMP:  67; 6HR PCP:  0.02;

WOODRUFF       CLOUDY    67  60  76 W7G16     29.86F
6HR MIN TEMP:  62; 6HR MAX TEMP:  67; 6HR PCP:  0.02;

RHINELANDER    CLOUDY    68  56  65 W13       29.88R
6HR MIN TEMP:  61; 6HR MAX TEMP:  69; 6HR PCP: TRACE;

EAGLE RIVER      N/A     66  55  66 W13G21    29.86R
LAND O LAKES   PTSUNNY   66  58  75 W13       29.85S
6HR MIN TEMP:  60; 6HR MAX TEMP:  67; 6HR PCP:  0.02;

PHILLIPS       CLOUDY    65  61  85 SW8       29.87F
6HR MIN TEMP:  59; 6HR MAX TEMP:  65; 6HR PCP:  0.05;

TOMAHAWK       CLOUDY    67  57  71 SW3       29.89S
6HR MIN TEMP:  60; 6HR MAX TEMP:  67;

MEDFORD        CLOUDY    65  61  87 W14G21    29.90S
6HR MIN TEMP:  59; 6HR MAX TEMP:  65; 6HR PCP:  0.04;

MERRILL        CLOUDY   N/A N/A N/A W14       29.90R
$$

WIZ029-030-035-036-043>047-291900-
CENTRAL WISCONSIN

CITY           SKY/WX    TMP DP  RH WIND       PRES   REMARKS
WAUSAU         CLOUDY    72  58  61 W18G31    29.88S
6HR MIN TEMP:  63; 6HR MAX TEMP:  73; 6HR PCP:  0.18;

MOSINEE        PTSUNNY   70  61  73 SW15G21   29.91S
MARSHFIELD     LGT RAIN  68  61  78 W13       29.92R
6HR MIN TEMP:  62; 6HR MAX TEMP:  70; 6HR PCP:  0.10;

STEVENS POINT  CLOUDY    67  57  71 W9        29.91F
6HR MIN TEMP:  61; 6HR MAX TEMP:  68; 6HR PCP:  0.14;

WAUPACA        CLOUDY    72  64  76 W13G18    29.91S
6HR MIN TEMP:  65; 6HR MAX TEMP:  73;

WAUTOMA        CLOUDY    74  59  59 W20G28    29.92F
6HR MIN TEMP:  62; 6HR MAX TEMP:  74; 6HR PCP:  0.09;

WISC RAPIDS    LGT RAIN  69  56  62 W13G23    29.93S
6HR MIN TEMP:  63; 6HR MAX TEMP:  73; 6HR PCP:  0.05;

CAMP DOUGLAS   NOT AVBL
$$

WIZ011>013-019>022-031-037>040-048>050-291900-
NORTHEAST WISCONSIN

CITY           SKY/WX    TMP DP  RH WIND       PRES   REMARKS
ANTIGO         CLOUDY    67  60  77 W13G21    29.89R
6HR MIN TEMP:  60; 6HR MAX TEMP:  67; 6HR PCP:  0.24;

SHAWANO        CLOUDY    71  62  72 W9G17     29.88S
6HR MIN TEMP:  66; 6HR MAX TEMP:  73; 6HR PCP:  0.06;

OCONTO         CLOUDY    67  67 100 W10       29.86S
6HR MIN TEMP:  63; 6HR MAX TEMP:  73; 6HR PCP:  0.17;

STURGEON BAY   NOT AVBL
GREEN BAY      CLOUDY    71  62  73 W15G23    29.89R
6HR MIN TEMP:  66; 6HR MAX TEMP:  72; 6HR PCP:  0.01;

MANITOWOC      PTSUNNY   70  64  81 W13G24    29.91S
6HR MIN TEMP:  64; 6HR MAX TEMP:  72; 6HR PCP:  0.06;

APPLETON       RAIN      70  59  68 W18       29.90R
CLINTONVILLE   CLOUDY    70  59  68 W13G18    29.89S
OSHKOSH        PTSUNNY   72  62  71 SW9G20    29.91S
6HR MIN TEMP:  65; 6HR MAX TEMP:  72; 6HR PCP:  0.06;

$$

WIZ032>034-041-042-053>061-291900-
SOUTHWEST WISCONSIN

CITY           SKY/WX    TMP DP  RH WIND       PRES   REMARKS
LA CROSSE      MOSUNNY   77  57  50 W18G25    29.95F
6HR MIN TEMP:  65; 6HR MAX TEMP:  78;

SPARTA         PTSUNNY   73  58  59 W8G18     29.96S
6HR MIN TEMP:  62; 6HR MAX TEMP:  74;

VIROQUA        MOSUNNY   74  58  57 W16G24    29.99S
6HR MIN TEMP:  62; 6HR MAX TEMP:  74;

BOSCOBEL       PTSUNNY   75  59  57 W9G21     29.99S
6HR MIN TEMP:  65; 6HR MAX TEMP:  78; 6HR PCP: TRACE;

PRAIRIE DU CHI MOSUNNY   76  56  50 W16G22    30.00S
6HR MIN TEMP:  64; 6HR MAX TEMP:  76;

PLATTEVILLE    PTSUNNY   75  62  62 W17G25    30.02S
6HR MIN TEMP:  64; 6HR MAX TEMP:  75;

$$

WIZ056-057-062-063-064-067-068-291900-
SOUTH CENTRAL WISCONSIN

CITY           SKY/WX    TMP DP  RH WIND       PRES   REMARKS
REEDSBURG      PTSUNNY   74  59  60 W14G24    29.96S
6HR MIN TEMP:  63; 6HR MAX TEMP:  74;

BARABOO/DELLS  PTSUNNY   72  56  57 SW10G25   29.96R
6HR MIN TEMP:  63; 6HR MAX TEMP:  74;

LONE ROCK      PTSUNNY   76  58  53 W15G24    29.98S
6HR MIN TEMP:  65; 6HR MAX TEMP:  77; 6HR PCP:  0.01;

MINERAL POINT  MOSUNNY   75  59  57 W21       30.00S
MADISON        PTSUNNY   75  57  53 W9G22     29.96S
6HR MIN TEMP:  65; 6HR MAX TEMP:  75;

MIDDLETON      PTSUNNY   74  59  59 W12G23    29.98S
6HR MIN TEMP:  64; 6HR MAX TEMP:  75;

WATERTOWN      PTSUNNY   74  59  59 W10G23    29.96S
6HR MIN TEMP:  65; 6HR MAX TEMP:  74;

MONROE         MOSUNNY   73  55  53 W18G30    30.00S
JANESVILLE     PTSUNNY   77  57  50 W15       29.98F
$$

WIZ051-052-058>065-066-070>072-291900-
SOUTHEAST WISCONSIN

CITY           SKY/WX    TMP DP  RH WIND       PRES   REMARKS
MILWAUKEE      PTSUNNY   75  59  57 SW15G28   29.96F
6HR MIN TEMP:  66; 6HR MAX TEMP:  75;

WAUKESHA       PTSUNNY   72  59  64 W17G25    29.97F
MILWAUKEE/TIMM PTSUNNY   72  57  60 SW14G21   29.96F
RACINE         MOSUNNY   75  59  57 W12G18    29.99S
6HR MIN TEMP:  67; 6HR MAX TEMP:  76; 6HR PCP: TRACE;

BURLINGTON     MOSUNNY   74  59  58 W15G23    29.98F
6HR MIN TEMP:  64; 6HR MAX TEMP:  74;

KENOSHA        MOSUNNY   75  60  59 W16       29.99S
6HR MIN TEMP:  66; 6HR MAX TEMP:  75;

FOND DU LAC    MOSUNNY   73  64  73 VRB7      29.92F
6HR MIN TEMP:  66; 6HR MAX TEMP:  73; 6HR PCP:  0.06;

SHEBOYGAN      MOSUNNY   74  61  63 SW16      29.91F
6HR MIN TEMP:  65; 6HR MAX TEMP:  75; 6HR PCP: TRACE;

WEST BEND      PTSUNNY   73  61  64 W14G25    29.94F
JUNEAU         MOSUNNY   73  60  64 SW16G24   29.96S
6HR MIN TEMP:  64; 6HR MAX TEMP:  73;

$$

LSZ147-162-291900-
LAKE SUPERIOR

STATION/POSITION TIME  TEMP    WIND        PRES    WAVE
                       AIR SEA DIR/SP/G            HT/PER
                 (UTC) (F)     (DEG/KT/KT) (MB)    (FT/S)
W MID LAKE BUOY  1750   44 38  230/ 12/ 12 1008.8F   0
DEVILS ISLAND    1800   53     250/ 19/ 22 1009.3R
PORT WING        1600   63     250/ 12/ 16 1010.2R
SAXON HARBOR     1740   68     290/  6/  9 1009.1F
$$

LMZ867-665-643>646-291900-
LAKE MICHIGAN

STATION/POSITION TIME  TEMP    WIND        PRES    WAVE
                       AIR SEA DIR/SP/G            HT/PER
                 (UTC) (F)     (DEG/KT/KT) (MB)    (FT/S)
CHAMBERS ISLAND  1700   70     170/ 10/ 16 1010.5S
N MID LAKE BUOY  1750   50 47  200/ 12/ 14 1011.2S   2/ 5
NORTHPORT PIER   1700   61     160/  7/ 12 1011.2R
SISTER BAY       1705   66     160/ 10/ 15   N/A
ALGOMA LAKESHORE 1702          230/ 14/ 21   N/A
KEWAUNEE LAKEC1F1C2F2C3F3C4F4C5F5C6F6C7F7C8M1C9M2Ca!



USA.gov is the U.S. government's official web portal to all federal, state and local government web resources and services.